SCP
0 0 0 0 0 0 0 0 0 0 0 0 0 0 0 1 1 1 1 2 2 3 4 4 4 4 4 5 4 3 2 2 2 1 2 2 2 2 2 2 2 2 2 2 2 1 1 1 1
0 0 0 0 0 0 0 0 0 0 0 0 0 0 1 1 1 1 2 2 3 4 4 4 4 4 4 4 4 3 2 2 2 2 2 2 3 3 2 2 2 2 2 1 1 1 1 1 1
0 0 0 0 0 0 0 0 0 0 0 1 1 1 1 1 1 1 2 2 3 4 4 4 4 4 4 4 3 3 2 2 2 2 2 2 3 3 2 2 1 1 1 1 1 1 1 1 1
0 0 0 0 0 0 0 0 0 0 1 1 1 1 1 1 1 2 2 3 3 4 4 4 4 4 3 3 3 3 2 2 2 2 2 2 2 3 2 2 1 1 1 1 1 1 1 1 1
0 0 0 0 0 0 0 0 0 0 1 1 1 1 1 1 1 2 3 3 3 3 3 3 3 3 3 3 3 3 3 2 2 2 2 2 2 3 2 1 1 1 1 1 1 1 1 1 1
0 0 0 0 0 0 1 1 1 1 1 1 1 1 1 1 2 3 3 3 3 3 3 3 3 3 3 4 4 3 3 2 2 2 2 2 2 2 2 1 1 1 1 1 1 1 1 1 1
0 0 0 0 0 0 1 1 1 1 1 1 1 1 1 1 3 3 3 3 3 3 3 3 3 3 3 4 4 4 3 3 2 2 2 2 2 2 1 1 1 1 1 1 1 1 1 1 1
0 0 0 0 0 0 0 1 1 1 1 1 1 1 1 2 3 4 4 3 3 3 3 3 3 3 3 4 4 4 3 2 2 2 2 2 1 1 1 1 1 1 1 1 1 1 1 1 1
0 0 0 0 0 0 0 1 1 1 1 1 1 1 2 3 5 5 4 4 3 3 4 4 4 4 4 3 3 3 3 2 2 2 2 2 1 1 1 1 1 1 1 1 1 1 1 1 1
0 0 0 0 0 0 0 1 1 1 1 1 1 2 2 4 5 6 5 4 4 4 4 4 4 5 4 3 3 3 3 2 2 2 2 2 1 1 1 1 1 1 1 1 1 1 1 1 1
0 0 0 0 0 0 1 1 1 1 1 1 1 2 3 4 5 6 6 5 4 4 4 5 5 5 4 3 2 2 2 2 2 2 2 2 1 1 1 1 1 1 1 1 1 1 1 1 1
0 0 0 0 0 1 1 1 1 1 1 1 1 2 3 3 5 6 6 4 4 4 4 5 5 4 3 3 2 2 2 2 2 2 2 2 2 2 1 1 1 1 1 1 1 1 1 1 1
0 0 0 0 1 1 1 1 1 1 1 1 1 2 2 3 4 5 5 4 4 4 4 4 4 3 2 2 2 2 2 2 2 3 3 3 3 2 2 2 2 1 1 1 1 1 1 1 1
0 0 0 1 1 1 1 1 1 1 1 1 2 2 2 3 4 5 4 4 3 4 4 3 2 2 2 2 2 1 2 2 2 3 3 4 4 4 3 3 2 1 1 1 1 1 1 1 1
0 0 1 1 1 1 1 0 1 1 1 1 2 2 2 3 4 4 4 3 3 3 2 2 1 1 1 1 1 1 1 2 2 3 3 3 4 4 4 3 2 1 1 1 1 1 1 1 1
0 0 1 1 0 0 0 0 1 1 1 1 2 2 2 3 3 3 3 3 2 2 2 1 1 1 1 1 1 1 1 1 2 2 3 3 4 4 4 3 1 1 1 1 1 1 1 1 1
0 1 1 1 0 0 0 0 0 1 1 1 1 2 3 3 2 3 3 3 3 2 2 2 1 1 1 1 0 0 1 1 1 1 2 2 3 3 3 2 1 1 1 1 1 1 1 1 1
0 1 1 1 0 0 0 0 0 1 1 1 1 2 2 2 2 2 3 3 3 3 2 2 2 2 1 1 1 1 1 1 1 1 1 1 1 2 2 1 1 1 1 1 1 1 1 1 1
0 0 1 1 0 0 0 0 0 0 1 1 1 1 2 2 2 3 3 3 3 3 3 2 2 2 2 1 1 1 1 1 1 1 0 0 0 1 1 1 1 1 1 1 1 1 1 1 1
0 0 0 1 1 0 0 0 0 0 0 1 1 1 2 3 2 3 4 4 4 4 3 3 2 2 2 1 1 1 1 1 1 0 0 0 0 0 0 1 1 1 1 1 1 1 1 1 1
0 0 0 1 1 0 0 0 0 0 0 0 1 1 2 3 2 3 4 5 4 4 4 4 3 2 2 1 1 1 1 1 1 0 0 0 0 0 0 0 1 1 1 1 1 1 1 1 1
0 0 0 1 1 0 0 0 0 0 0 0 1 2 2 3 2 3 4 4 4 4 4 5 4 3 2 2 2 2 1 1 1 0 0 0 0 0 1 1 1 1 1 1 1 1 1 1 1
0 0 0 0 0 0 0 0 0 0 0 1 1 2 3 3 2 2 3 3 4 3 4 5 5 4 3 3 3 2 2 1 1 1 0 0 0 0 1 1 1 1 1 1 1 1 1 1 1
0 0 0 0 0 0 0 0 0 0 0 1 1 2 3 3 2 1 2 3 3 3 4 5 6 5 4 3 4 3 2 2 1 1 1 0 0 0 0 1 1 1 1 1 1 1 1 1 1
0 0 0 0 0 0 0 0 0 0 0 1 1 2 2 2 1 1 1 2 2 2 3 5 6 5 4 4 3 3 2 2 1 1 1 1 1 1 1 1 1 1 1 1 1 1 1 1 1
0 0 0 0 0 0 0 0 0 0 0 1 1 1 1 1 1 1 2 2 2 3 3 5 6 6 4 3 2 2 1 1 1 1 1 1 1 1 1 1 1 1 1 1 1 1 1 1 1
0 0 0 0 0 0 0 0 0 0 1 1 1 1 1 1 1 1 2 2 3 3 4 5 6 6 4 3 1 1 1 1 1 1 1 1 1 1 1 1 1 1 1 1 1 1 1 1 1
0 0 0 0 0 0 0 0 0 0 1 1 1 1 0 1 1 1 2 2 3 3 3 4 6 6 5 2 1 1 1 1 1 1 1 1 1 1 1 1 1 1 1 1 1 1 1 1 1
0 0 0 0 0 0 0 0 0 1 1 1 1 1 0 1 1 1 1 2 2 3 3 4 6 6 5 3 1 1 1 0 0 1 1 1 2 2 1 1 1 1 0 0 0 1 1 1 1
0 0 0 0 0 0 0 0 0 1 1 1 1 1 0 1 1 1 1 2 2 2 2 3 5 6 5 3 2 1 1 0 0 0 1 1 2 2 1 1 1 1 1 0 0 0 0 0 0
Wind_Speed
2 2 2 2 5 6 1 2 1 2 1 0 2 3 4 3 2 2 1 7 9 9 7 9 11 11 11 10 10 10 10 10 10 10 10 9 9 9 9 8 8 8 8 8 9 9 9 9 9
2 2 2 4 6 3 3 2 1 1 2 2 3 3 3 2 2 4 3 5 9 9 7 8 11 11 11 10 10 9 10 10 10 9 10 9 9 9 8 8 8 8 8 8 8 8 8 8 8
2 1 4 5 4 3 2 2 1 1 1 1 2 3 2 2 3 4 4 9 8 7 6 8 12 11 11 11 10 9 9 9 9 9 9 9 8 8 8 8 8 8 7 7 8 8 8 8 8
2 3 5 5 0 4 4 2 2 1 1 2 3 3 2 2 3 5 9 10 9 6 5 7 12 11 10 10 10 9 9 9 9 8 8 8 8 7 7 7 7 7 7 7 7 7 7 8 7
3 5 5 3 3 4 3 3 2 1 1 1 3 3 2 3 6 10 10 9 8 6 5 6 11 11 11 10 10 9 8 8 8 7 7 7 7 7 7 7 7 6 6 6 6 6 6 6 6
5 5 4 1 4 4 2 1 1 1 1 2 3 3 1 2 6 8 8 7 7 6 5 5 10 10 10 10 10 9 8 7 7 6 6 6 6 6 6 6 5 5 5 5 5 5 5 5 5
5 4 3 2 2 3 2 0 2 2 1 2 3 4 1 2 4 8 7 6 6 5 4 4 5 6 8 9 9 8 8 7 6 6 6 6 6 6 6 5 5 4 4 5 5 5 4 4 4
5 5 2 1 2 3 1 1 1 2 1 2 3 5 4 4 7 7 7 5 5 4 4 3 3 3 3 4 7 8 7 7 7 6 6 5 5 4 5 4 4 4 5 5 4 4 4 4 4
4 5 2 4 3 3 0 1 1 1 3 2 1 2 4 11 11 9 6 4 4 4 3 3 3 3 3 3 5 5 6 6 5 4 5 4 2 2 2 2 3 4 4 4 4 3 3 3 3
5 3 6 4 4 2 1 1 1 1 1 1 2 4 9 12 11 10 9 8 7 6 5 3 3 3 3 3 3 2 2 2 2 2 2 2 2 2 2 2 3 3 3 2 2 2 2 2 1
4 5 4 4 3 2 1 1 1 4 3 5 6 9 11 11 10 9 9 8 7 6 5 4 4 4 3 2 2 1 1 2 2 2 2 2 2 1 2 1 1 1 2 1 2 2 2 1 1
3 4 3 3 1 1 2 1 1 4 6 5 8 12 13 12 11 10 9 8 6 5 5 4 4 4 3 2 2 2 1 2 1 2 2 2 1 1 1 1 1 1 1 1 2 1 1 2 2
2 3 2 2 1 1 1 1 2 3 3 3 8 10 12 11 10 7 6 6 6 6 6 5 5 4 3 2 2 2 2 2 2 2 2 2 2 1 1 1 1 1 1 1 1 1 1 1 1
3 2 3 2 1 0 2 1 0 4 1 4 8 9 9 10 9 7 6 7 7 7 6 5 5 4 4 3 2 2 2 2 2 1 2 2 2 2 1 1 1 1 1 1 1 1 1 1 1
0 1 3 2 1 2 2 3 3 3 3 4 6 7 7 7 7 7 8 7 7 6 5 5 5 4 4 3 3 2 2 2 2 1 2 2 2 2 2 1 1 1 1 1 1 1 1 1 1
2 2 2 4 1 0 4 4 5 1 4 4 5 6 5 5 6 6 6 5 5 5 5 5 5 5 4 3 3 2 2 2 1 1 1 2 2 2 2 2 1 1 1 1 1 1 1 0 0
4 1 1 4 1 1 2 4 4 1 3 4 5 5 6 5 5 5 6 6 6 6 5 5 4 5 4 3 2 2 2 2 1 1 1 1 2 2 2 2 2 2 2 1 1 1 1 0 0
2 1 1 3 2 1 1 4 5 1 4 4 4 5 5 6 6 6 6 6 6 6 5 5 4 4 4 3 2 1 1 1 1 1 1 1 1 2 2 2 1 2 2 1 1 1 1 1 0
3 2 3 5 3 1 3 4 5 2 2 3 3 5 6 6 4 4 5 6 6 6 6 5 5 4 4 3 2 2 1 0 0 0 1 1 1 1 2 1 2 2 2 2 2 2 2 1 1
2 2 3 5 2 2 2 4 3 3 3 4 4 5 6 5 4 4 4 5 6 6 6 6 5 4 4 3 2 2 1 1 1 0 1 1 1 1 2 2 1 2 2 2 2 2 2 1 1
4 5 4 4 3 2 0 4 4 2 0 1 2 3 4 7 7 6 5 6 6 6 7 6 5 5 4 3 3 2 2 2 1 1 0 1 0 1 1 1 1 2 2 2 2 2 3 2 1
5 6 5 3 0 3 1 3 6 4 3 3 3 2 4 5 6 6 6 6 6 6 6 5 5 5 4 4 4 4 3 2 1 1 1 1 0 0 1 1 1 2 2 2 2 2 2 3 2
6 2 3 2 2 1 1 1 7 2 4 5 4 4 4 5 5 5 5 6 5 5 5 5 5 4 4 4 4 4 2 1 1 1 1 0 1 0 0 1 1 1 1 2 2 2 2 2 2
3 4 5 5 4 1 3 3 6 4 5 4 3 4 4 4 4 4 4 4 3 4 4 5 5 4 4 4 4 4 3 2 2 1 1 1 0 0 0 1 1 1 1 2 2 2 2 2 2
4 5 3 4 3 5 2 2 8 6 4 5 5 4 5 4 4 4 5 5 5 5 5 5 6 4 4 4 3 3 4 3 3 3 2 2 1 1 1 1 1 1 1 2 2 2 2 2 2
4 8 7 5 5 4 1 5 7 4 3 2 2 2 3 4 4 4 5 5 5 6 6 6 5 4 4 3 2 2 2 2 2 2 2 2 2 2 2 1 2 1 1 1 2 2 2 2 2
5 4 5 6 2 1 4 5 6 1 2 1 1 2 2 3 4 4 4 4 5 5 6 7 6 4 3 3 3 2 2 2 1 1 1 1 1 1 1 1 1 1 1 1 2 2 2 2 1
5 7 5 5 5 3 4 4 5 4 3 2 1 2 2 2 3 3 4 3 3 4 4 5 6 6 5 4 3 3 2 1 1 1 1 1 1 1 1 1 1 1 1 2 2 2 2 2 1
3 3 4 4 4 5 3 6 5 6 5 4 3 3 3 3 4 4 3 3 3 3 3 5 5 4 4 3 3 3 2 1 1 1 1 1 1 1 2 2 2 2 2 2 2 2 2 3 2
4 5 6 5 3 4 3 7 3 2 2 2 2 2 2 2 3 3 3 3 3 3 3 4 4 4 4 4 3 3 2 2 1 1 1 1 1 1 2 2 2 2 2 2 3 2 2 3 2
Wind_Direction
160 126 114 74 55 50 351 283 259 317 345 24 109 114 128 133 165 189 119 137 135 141 151 158 154 148 140 132 125 120 118 117 115 113 114 111 109 108 109 109 111 111 112 113 115 117 120 122 122
138 135 71 62 77 54 300 275 297 286 191 122 76 81 88 89 87 111 129 143 137 142 148 156 154 149 143 136 131 127 123 120 117 116 115 112 110 107 108 110 112 112 111 111 114 119 122 123 124
165 125 84 73 95 168 246 252 222 302 145 137 87 64 86 126 131 147 156 142 132 136 145 159 154 151 145 139 136 132 126 122 120 118 117 115 112 110 108 111 114 113 111 110 113 118 119 120 122
111 56 55 69 186 229 224 239 205 165 31 60 104 76 60 51 142 140 136 140 134 136 143 158 151 149 145 143 141 134 129 125 122 120 119 118 115 114 114 116 119 117 114 113 113 117 120 120 121
67 76 60 33 281 267 248 240 204 158 142 75 103 92 41 18 101 124 137 142 141 141 144 156 154 154 154 152 146 139 135 129 125 123 122 120 119 119 118 118 119 118 115 118 115 113 117 119 124
59 68 81 302 285 289 285 224 129 103 130 110 111 111 45 93 118 135 138 137 138 141 143 152 159 156 156 156 151 146 140 134 131 127 123 124 124 127 129 126 122 120 121 122 121 113 111 113 122
105 100 147 210 279 303 297 152 128 144 136 151 133 118 124 153 143 133 129 124 127 135 138 146 154 157 159 160 157 151 147 142 138 133 127 125 124 127 132 131 129 129 134 130 124 117 116 107 108
122 106 130 223 232 268 295 22 99 125 150 120 124 147 188 180 138 122 114 110 119 128 138 138 139 143 151 158 162 158 154 150 147 140 135 128 124 125 130 125 129 127 133 128 122 118 111 103 111
90 81 199 220 202 244 246 46 358 58 109 103 118 157 158 137 130 123 119 116 136 153 151 145 146 141 139 151 164 157 153 149 142 137 134 120 89 85 103 121 127 122 122 123 119 118 114 111 116
95 143 224 221 198 207 245 160 188 76 79 100 73 82 121 136 143 150 158 164 173 178 177 163 157 151 146 158 138 124 128 124 111 99 102 94 82 74 85 72 109 109 110 111 95 92 93 98 81
149 192 230 248 223 204 209 261 167 145 221 206 178 155 149 151 158 167 173 175 180 178 179 179 172 162 156 151 138 125 114 111 109 113 111 105 93 76 68 52 45 52 71 65 54 60 71 94 104
178 239 226 255 230 191 199 193 175 203 222 194 169 157 158 164 173 178 178 176 170 170 183 178 174 168 162 148 146 141 138 138 141 144 134 129 117 93 85 78 67 65 60 71 66 70 84 94 118
211 267 267 258 281 232 160 213 213 255 245 140 143 153 164 172 178 180 174 168 164 178 184 180 176 172 163 151 155 154 159 157 153 149 154 152 150 145 133 128 106 93 81 82 83 82 90 93 108
229 254 291 301 288 194 156 305 114 263 181 129 148 164 175 178 176 169 169 173 179 184 184 175 174 171 160 163 165 163 165 158 144 158 171 161 157 154 153 143 129 119 114 116 131 132 117 107 116
296 347 339 314 241 225 126 334 276 252 127 140 163 172 173 176 167 176 183 181 180 178 173 170 170 161 161 162 160 151 156 151 159 173 171 167 161 158 158 152 150 156 127 121 109 99 95 106 119
50 55 331 300 296 278 123 262 284 218 136 163 180 179 172 176 171 179 175 171 165 156 158 166 165 156 160 161 154 140 136 137 148 157 159 171 170 167 161 163 185 174 140 128 129 114 102 62 59
35 67 269 301 301 100 131 255 289 198 152 188 196 185 177 174 171 178 171 168 164 159 153 151 149 155 160 155 138 130 125 126 126 122 131 167 179 176 172 177 193 166 142 150 175 129 132 130 6
216 202 264 269 294 83 171 263 289 241 179 201 206 190 185 186 196 183 169 163 158 152 145 145 147 151 144 130 110 100 94 94 103 122 138 147 175 174 160 164 176 156 143 150 157 140 121 125 159
167 183 257 263 252 174 232 263 278 249 209 217 218 202 196 198 194 168 160 158 146 147 149 153 153 154 145 139 144 143 159 158 135 166 159 155 158 146 147 148 153 156 160 170 166 149 131 91 100
182 228 267 289 306 177 240 283 280 227 215 215 217 211 195 184 175 171 161 158 159 162 163 164 166 163 160 159 155 143 141 152 149 67 62 92 125 131 148 147 162 166 161 158 162 153 143 145 141
216 203 225 248 337 11 70 324 314 312 297 283 274 212 193 186 185 183 174 169 164 168 174 173 174 164 160 143 123 104 77 68 59 37 11 336 87 126 122 152 156 159 165 178 179 167 160 166 158
242 221 202 216 76 299 44 284 292 298 310 289 267 212 196 187 186 186 177 172 177 180 170 164 161 154 151 142 145 148 150 161 195 198 217 302 3 85 124 147 155 162 166 173 181 165 168 160 169
219 203 176 184 160 326 343 191 287 308 286 275 245 212 197 187 183 185 184 178 173 164 156 155 147 145 147 148 153 152 144 170 158 146 146 352 349 24 87 152 138 151 176 179 166 152 155 158 166
164 72 61 53 76 278 245 176 278 251 240 263 241 206 190 174 166 169 158 144 145 145 146 146 145 149 149 149 147 153 154 155 147 160 174 212 276 288 218 169 158 173 181 183 181 166 156 154 159
96 93 41 9 17 247 239 192 248 251 241 234 227 210 186 168 158 156 155 155 157 156 155 153 152 153 155 155 154 169 173 174 183 192 191 192 208 240 243 205 194 204 207 192 175 162 163 161 165
168 144 159 190 213 263 285 229 250 262 275 262 216 177 162 163 162 167 172 167 164 164 159 155 156 153 153 155 165 166 162 171 193 200 192 198 208 215 210 197 194 203 191 181 164 155 169 160 170
144 170 165 137 156 220 264 272 295 284 321 329 142 132 171 176 172 169 162 161 162 163 166 163 158 153 161 166 161 147 143 156 181 197 197 200 203 200 183 183 181 194 179 168 157 152 161 151 162
140 144 106 124 153 226 268 254 244 254 257 264 216 186 197 178 169 159 151 148 149 158 164 160 161 167 173 177 168 154 162 172 164 168 195 218 224 214 187 193 190 186 177 162 150 143 156 145 155
113 106 114 123 157 163 235 264 229 216 214 211 227 216 204 184 176 169 156 153 139 132 151 167 169 167 168 170 162 150 160 157 144 192 216 212 204 194 195 191 183 184 176 162 149 152 154 150 154
148 160 149 153 206 178 184 263 287 223 205 190 215 224 210 177 169 162 156 146 146 160 173 177 174 171 179 176 162 156 156 156 172 211 238 216 209 205 204 193 185 186 176 166 163 169 162 162 173